Weather History for KGAF - October, 2013

Change the Weather History Date:

Friday, October 18, 2013

  Actual Average Record
Temperature  
Mean Temperature 37 °F -  
Max Temperature 46 °F 53 °F 74 °F (1963)
Min Temperature 28 °F 31 °F 9 °F (1972)
Degree Days  
Heating Degree Days 28    
Moisture  
Dew Point 32 °F    
Average Humidity 83    
Maximum Humidity 100    
Minimum Humidity 57    
Precipitation  
Precipitation 0.00 in - - ()
Sea Level Pressure  
Sea Level Pressure 29.86 in    
Wind  
Wind Speed 8 mph (West)    
Max Wind Speed 16 mph    
Max Gust Speed 21 mph    
Visibility 10 miles    
Events Rain    
Averages and records for this station are not official NWS values.
T = Trace of Precipitation, MM = Missing Value Source: NWS Daily Summary

Daily Weather History Graph

Daily Weather History Graph

Search for Another Location

Airport or City:

Trip Planner

Search our weather history database for the weather conditions in past years. The results will help you decide how hot, cold, wet, or windy it might be!

Date:

Astronomy

Oct. 18, 2013 Rise Set
Actual Time 7:54 AM CDT 6:34 PM CDT
Civil Twilight 7:22 AM CDT 7:05 PM CDT
Nautical Twilight 6:46 AM CDT 7:42 PM CDT
Astronomical Twilight 6:09 AM CDT 8:18 PM CDT
Moon 6:22 PM CDT (10/18) 7:31 AM CDT (10/18)
Length of Visible Light 11h 43m
Length of Day
10h 39m
Full, 100% of the Moon is Illuminated
Oct 18
Full
Oct 18
Full
Oct 26
Last Quarter
Nov 3
New
Nov 9
First Quarter

Hourly Weather History & Observations

Time (CDT) Temp. Windchill Dew Point Humidity Pressure Visibility Wind Dir Wind Speed Gust Speed Precip Events Conditions
12:15 AM 35.6 °F 30.7 °F 32.0 °F 87% 29.93 in 10.0 mi West 5.8 mph - N/A   Mostly Cloudy
12:35 AM 35.6 °F 30.7 °F 32.0 °F 87% 29.92 in 10.0 mi WSW 5.8 mph - N/A   Overcast
12:55 AM 35.6 °F 30.7 °F 32.0 °F 87% 29.92 in 10.0 mi WSW 5.8 mph - N/A   Overcast
1:15 AM 35.6 °F 30.7 °F 32.0 °F 87% 29.92 in 10.0 mi WSW 5.8 mph - N/A   Overcast
1:35 AM 35.6 °F 30.7 °F 32.0 °F 87% 29.92 in 10.0 mi West 5.8 mph - N/A   Overcast
1:55 AM 35.6 °F 30.7 °F 32.0 °F 87% 29.92 in 10.0 mi WSW 5.8 mph - N/A   Scattered Clouds
2:15 AM 33.8 °F 27.7 °F 32.0 °F 93% 29.92 in 10.0 mi WSW 6.9 mph - N/A   Clear
2:35 AM 33.8 °F 28.6 °F 32.0 °F 93% 29.92 in 10.0 mi West 5.8 mph - N/A   Clear
2:55 AM 33.8 °F 27.0 °F 32.0 °F 93% 29.92 in 10.0 mi West 8.1 mph - N/A   Clear
3:15 AM 35.6 °F 28.6 °F 32.0 °F 87% 29.92 in 10.0 mi WNW 9.2 mph - N/A   Scattered Clouds
3:35 AM 35.6 °F 28.6 °F 32.0 °F 87% 29.91 in 10.0 mi WNW 9.2 mph - N/A   Mostly Cloudy
3:55 AM 33.8 °F 27.0 °F 32.0 °F 93% 29.91 in 10.0 mi West 8.1 mph - N/A   Partly Cloudy
4:15 AM 33.8 °F 27.0 °F 32.0 °F 93% 29.91 in 10.0 mi West 8.1 mph - N/A   Clear
4:35 AM 32.0 °F 24.8 °F 30.2 °F 93% 29.91 in 10.0 mi NW 8.1 mph - N/A   Clear
4:55 AM 33.8 °F 27.0 °F 30.2 °F 87% 29.92 in 10.0 mi WNW 8.1 mph - N/A   Clear
5:15 AM 32.0 °F 24.8 °F 30.2 °F 93% 29.92 in 10.0 mi WNW 8.1 mph - N/A   Clear
5:35 AM 32.0 °F 24.8 °F 30.2 °F 93% 29.92 in 10.0 mi WNW 8.1 mph - N/A   Clear
5:55 AM 32.0 °F 24.8 °F 28.4 °F 87% 29.92 in 10.0 mi WNW 8.1 mph - N/A   Clear
6:15 AM 32.0 °F 25.6 °F 30.2 °F 93% 29.92 in 10.0 mi West 6.9 mph - N/A   Clear
6:35 AM 32.0 °F 26.4 °F 28.4 °F 87% 29.92 in 10.0 mi WNW 5.8 mph - N/A   Clear
6:55 AM 32.0 °F 27.5 °F 28.4 °F 87% 29.92 in 10.0 mi WNW 4.6 mph - N/A   Clear
7:15 AM 32.0 °F 25.6 °F 28.4 °F 87% 29.92 in 10.0 mi NW 6.9 mph - N/A   Clear
7:35 AM 28.4 °F 21.2 °F 28.4 °F 100% 29.92 in 10.0 mi West 6.9 mph - N/A   Clear
7:55 AM 28.4 °F 24.6 °F 26.6 °F 93% 29.92 in 10.0 mi WSW 3.5 mph - N/A   Clear
8:15 AM 28.4 °F 23.3 °F 26.6 °F 93% 29.92 in 10.0 mi WSW 4.6 mph - N/A   Clear
8:35 AM 32.0 °F 27.5 °F 28.4 °F 87% 29.92 in 10.0 mi WSW 4.6 mph - N/A   Scattered Clouds
8:55 AM 32.0 °F 26.4 °F 28.4 °F 87% 29.92 in 10.0 mi WSW 5.8 mph - N/A   Mostly Cloudy
9:15 AM 33.8 °F 27.0 °F 30.2 °F 87% 29.92 in 10.0 mi WSW 8.1 mph - N/A   Overcast
9:35 AM 32.0 °F 26.4 °F 28.4 °F 87% 29.92 in 10.0 mi WSW 5.8 mph - N/A   Mostly Cloudy
9:55 AM 32.0 °F 24.8 °F 30.2 °F 93% 29.92 in 10.0 mi WSW 8.1 mph - N/A   Scattered Clouds
10:15 AM 35.6 °F 29.2 °F 32.0 °F 87% 29.91 in 10.0 mi West 8.1 mph - N/A   Clear
10:35 AM 37.4 °F 31.4 °F 32.0 °F 81% 29.91 in 10.0 mi West 8.1 mph - N/A   Clear
10:55 AM 39.2 °F 33.0 °F 32.0 °F 75% 29.91 in 10.0 mi West 9.2 mph - N/A   Clear
11:15 AM 41.0 °F 34.7 °F 32.0 °F 70% 29.90 in 10.0 mi West 10.4 mph - N/A   Clear
11:35 AM 44.6 °F 38.8 °F 32.0 °F 61% 29.90 in 10.0 mi West 11.5 mph - N/A   Clear
11:55 AM 44.6 °F 39.7 °F 32.0 °F 61% 29.89 in 10.0 mi West 9.2 mph - N/A   Clear
12:15 PM 46.4 °F 41.1 °F 32.0 °F 57% 29.89 in 10.0 mi West 11.5 mph - N/A   Partly Cloudy
12:35 PM 46.4 °F 41.1 °F 32.0 °F 57% 29.88 in 9.0 mi West 11.5 mph 17.3 mph N/A   Scattered Clouds
12:55 PM 44.6 °F 38.1 °F 32.0 °F 61% 29.88 in 10.0 mi West 13.8 mph - N/A   Mostly Cloudy
1:15 PM 44.6 °F 37.8 °F 32.0 °F 61% 29.87 in 10.0 mi West 15.0 mph - N/A   Partly Cloudy
1:35 PM 44.6 °F 38.8 °F 32.0 °F 61% 29.86 in 10.0 mi West 11.5 mph 19.6 mph N/A   Scattered Clouds
1:55 PM 44.6 °F 37.8 °F 32.0 °F 61% 29.85 in 10.0 mi West 15.0 mph - N/A   Partly Cloudy
2:15 PM 44.6 °F 37.8 °F 32.0 °F 61% 29.84 in 10.0 mi West 15.0 mph - N/A   Mostly Cloudy
2:35 PM 42.8 °F 35.4 °F 35.6 °F 76% 29.84 in 10.0 mi West 15.0 mph - N/A Rain Light Rain
2:55 PM 42.8 °F 35.4 °F 35.6 °F 76% 29.83 in 10.0 mi WNW 15.0 mph - N/A   Mostly Cloudy
3:15 PM 44.6 °F 38.1 °F 35.6 °F 71% 29.83 in 10.0 mi WNW 13.8 mph - N/A   Mostly Cloudy
3:35 PM 44.6 °F 37.4 °F 35.6 °F 71% 29.83 in 10.0 mi West 16.1 mph 20.7 mph N/A   Overcast
3:55 PM 44.6 °F 39.7 °F 33.8 °F 66% 29.82 in 10.0 mi West 9.2 mph - N/A   Mostly Cloudy
4:15 PM 44.6 °F 38.8 °F 32.0 °F 61% 29.81 in 10.0 mi WNW 11.5 mph - N/A   Mostly Cloudy
4:35 PM 44.6 °F 38.1 °F 32.0 °F 61% 29.80 in 10.0 mi West 13.8 mph - N/A   Scattered Clouds
4:55 PM 44.6 °F 38.1 °F 32.0 °F 61% 29.80 in 10.0 mi West 13.8 mph 19.6 mph N/A   Mostly Cloudy
5:15 PM 41.0 °F 33.5 °F 32.0 °F 70% 29.79 in 10.0 mi WSW 13.8 mph - N/A   Partly Cloudy
5:35 PM 41.0 °F 34.3 °F 33.8 °F 76% 29.79 in 10.0 mi West 11.5 mph - N/A   Clear
5:55 PM 41.0 °F 35.2 °F 33.8 °F 76% 29.79 in 10.0 mi West 9.2 mph - N/A   Partly Cloudy
6:15 PM 39.2 °F 33.0 °F 32.0 °F 75% 29.79 in 10.0 mi West 9.2 mph - N/A   Scattered Clouds
6:35 PM 39.2 °F 34.2 °F 33.8 °F 81% 29.78 in 10.0 mi West 6.9 mph - N/A   Scattered Clouds
6:55 PM 37.4 °F 32.8 °F 32.0 °F 81% 29.78 in 10.0 mi WSW 5.8 mph - N/A   Scattered Clouds
7:15 PM 35.6 °F 29.2 °F 33.8 °F 93% 29.79 in 10.0 mi West 8.1 mph - N/A   Partly Cloudy
7:35 PM 35.6 °F 29.9 °F 32.0 °F 87% 29.79 in 10.0 mi West 6.9 mph - N/A   Scattered Clouds
7:55 PM 35.6 °F 30.7 °F 32.0 °F 87% 29.79 in 10.0 mi WSW 5.8 mph - N/A   Clear
8:15 PM 33.8 °F 27.0 °F 32.0 °F 93% 29.78 in 10.0 mi WSW 8.1 mph - N/A   Clear
8:35 PM 32.0 °F 25.6 °F 30.2 °F 93% 29.77 in 10.0 mi SW 6.9 mph - N/A   Scattered Clouds
8:55 PM 32.0 °F 24.8 °F 30.2 °F 93% 29.77 in 10.0 mi SW 8.1 mph - N/A   Mostly Cloudy
9:15 PM 32.0 °F 24.8 °F 30.2 °F 93% 29.76 in 10.0 mi SW 8.1 mph - N/A   Partly Cloudy
9:35 PM 32.0 °F 25.6 °F 30.2 °F 93% 29.76 in 10.0 mi SW 6.9 mph - N/A   Scattered Clouds
9:55 PM 32.0 °F 26.4 °F 32.0 °F 100% 29.76 in 10.0 mi SW 5.8 mph - N/A   Mostly Cloudy
10:15 PM 33.8 °F 27.7 °F 32.0 °F 93% 29.75 in 10.0 mi SW 6.9 mph - N/A   Scattered Clouds
10:35 PM 33.8 °F 27.0 °F 32.0 °F 93% 29.74 in 10.0 mi SW 8.1 mph - N/A   Mostly Cloudy
10:55 PM 32.0 °F 25.6 °F 32.0 °F 100% 29.74 in 10.0 mi SW 6.9 mph - N/A   Overcast
11:15 PM 32.0 °F 25.6 °F 32.0 °F 100% 29.73 in 10.0 mi SW 6.9 mph - N/A   Scattered Clouds
11:35 PM 32.0 °F 26.4 °F 32.0 °F 100% 29.73 in 10.0 mi SW 5.8 mph - N/A   Partly Cloudy
11:55 PM 33.8 °F 27.7 °F 33.8 °F 100% 29.72 in 10.0 mi West 6.9 mph - N/A   Partly Cloudy